Location: Rounton
(54.4000°N, 1.3500°W)
Time: 02:50:23
(UTC+00:00)

ISS - Pass Details

Date: 30 October 2021
Orbit: 417 x 423 km, 51.6° (Epoch: 01 December)

Event Time Altitude Azimuth Distance (km) Brightness Sun altitude
Exits shadow 06:05:52 38° 216° (SW) 659 -3.1 -17.5°
Maximum altitude 06:06:42 49° 171° (S) 554 -3.2 -17.4°
Drops below altitude 10° 06:09:58 10° 96° (E) 1,503 0.4 -16.9°
Sets 06:12:12 0° 90° (E) 2,404 2.0 -16.6°
